Flag for China Weather past 2 weeks in Taiyuan, Shanxi, China

63 °F


Feels Like: 63 °F
Forecast: 45 / 65 °F
Wind: 6 mph from North

Location: Taiyuan Airport

Current Time: Oct 13, 2015 at 8:11:15 PM

Latest Report: Oct 13, 2015 at 7:30 PM

Visibility: 4 mi

Pressure: 30.12 "Hg (27.44 "Hg at 790m altitude)

Humidity: 37%

Dew point: 36 °F

Location of TaiyuanLocation

Historic Weather in Taiyuan — Graph


Taiyuan temperature yesterday

Maximum temperature yesterday: 70 °F (at 3:30 PM)
Minimum temperature yesterday: 36 °F (at 4:30 AM)
Average temperature yesterday: 52 °F

Past Weeks' High & Low Weather Summary

High77 °F (Oct 5, 3:30 PM)94% (Sep 30, 6:00 PM)30.36 "Hg (Sep 30, 6:00 PM)
Low32 °F (Oct 9, 6:30 AM)10% (Oct 9, 4:00 PM)29.89 "Hg (Oct 9, 3:00 PM)
Average55 °F53%30.17 "Hg
* Reported Sep 28 7:00 PM — Oct 13 7:00 PM, Taiyuan, Weather by CustomWeather, © 2015

Note: Actual official high and low records may vary slightly from our data, if they occured in-between our weather recording intervals... More about our weather records


Taiyuan weather history for previous 24 hours

Time TempWeatherWind HumidityBarometerVisibility
7:00 PM
Tue, Oct 13
63 °FClear.3 mph37%30.12 "Hg4 mi
6:30 PM63 °FClear.1 mph34%30.12 "Hg4 mi
6:00 PM63 °FClear.1 mph37%30.12 "Hg4 mi
5:30 PM64 °FClear.3 mph32%30.12 "Hg5 mi
5:00 PM66 °FSunny.3 mph30%30.12 "Hg10 mi
4:30 PM68 °FSunny.3 mph24%30.12 "Hg10 mi
4:00 PM70 °FSunny.3 mph23%30.12 "Hg10 mi
3:30 PM72 °FSunny.1 mph19%30.12 "Hg10 mi
3:00 PM72 °FSunny.3 mph20%30.12 "Hg10 mi
2:30 PM70 °FPassing clouds.3 mph20%30.15 "HgN/A
2:00 PM72 °FSunny.1 mph19%30.15 "Hg10 mi
1:30 PM70 °FSunny.1 mph20%30.15 "Hg10 mi
1:00 PM68 °FSunny.1 mph21%30.18 "Hg10 mi
12:30 PM66 °FSunny.3 mph24%30.21 "Hg10 mi
11:30 AM63 °FClear.1 mph32%30.24 "Hg5 mi
11:00 AM59 °FClear.1 mph34%30.24 "Hg5 mi
10:30 AM57 °FClear.1 mph39%30.27 "Hg4 mi
10:00 AM55 °FClear.1 mph38%30.27 "Hg4 mi
9:30 AM54 °FClear.1 mph47%30.30 "Hg4 mi
9:00 AM52 °FClear.1 mph47%30.30 "Hg4 mi
8:30 AM50 °FClear.1 mph54%30.30 "Hg4 mi
8:00 AM45 °FClear.1 mph76%30.27 "Hg4 mi
7:30 AM39 °FClear.1 mph81%30.27 "Hg4 mi
7:00 AM37 °FClear.1 mph87%30.27 "Hg4 mi
6:30 AM37 °FClear.1 mph81%30.27 "Hg4 mi
6:00 AM37 °FClear.No wind81%30.27 "Hg4 mi
5:30 AM37 °FClear.1 mph81%30.27 "Hg4 mi
5:00 AM39 °FClear.1 mph81%30.27 "Hg4 mi
4:30 AM39 °FClear.1 mph81%30.27 "Hg4 mi
4:00 AM39 °FClear.1 mph81%30.27 "Hg4 mi
3:30 AM41 °FClear.1 mph76%30.27 "Hg4 mi
3:00 AM39 °FClear.1 mph75%30.27 "Hg4 mi
2:30 AM39 °FClear.1 mph75%30.27 "Hg4 mi
2:00 AM43 °FClear.1 mph71%30.27 "Hg5 mi
1:30 AM43 °FClear.3 mph71%30.27 "Hg4 mi
1:00 AM41 °FClear.1 mph70%30.27 "Hg4 mi
12:30 AM43 °FClear.1 mph71%30.27 "Hg4 mi
12:00 AM43 °FClear.1 mph71%30.27 "Hg4 mi
11:30 PM
Mon, Oct 12
45 °FClear.No wind61%30.27 "Hg4 mi
11:00 PM46 °FClear.1 mph62%30.27 "Hg4 mi
10:30 PM46 °FClear.No wind57%30.27 "Hg10 mi
10:00 PM48 °FClear.3 mph54%30.27 "Hg10 mi
9:30 PM48 °FClear.1 mph58%30.24 "Hg10 mi
9:00 PM54 °FClear.6 mph41%30.24 "Hg10 mi
8:30 PM52 °FClear.3 mph47%30.24 "Hg10 mi
8:00 PM55 °FPassing clouds.6 mph38%30.21 "HgN/A
Weather by CustomWeather, © 2015

See weather overviewHow to use our weather pages